Location: Prairie Dale
(45.6972°N, 104.5033°W)
Time: 00:12:55
(UTC+00:00)

EO-79 - Pass Details

Date: 04 July 2022
Orbit: 588 x 603 km, 98.0° (Epoch: 15 August)

Event Time Altitude Azimuth Distance (km) Brightness Sun altitude
Rises 07:54:27 0° 25° (NNE) 2,859 ? -20.4°
Reaches altitude 10° 07:56:57 10° 38° (NE) 1,953 ? -20.3°
Maximum altitude 08:00:29 25° 95° (E) 1,224 ? -20.2°
Enters shadow 08:01:58 21° 127° (SE) 1,382 ? -20.1°
